Regional Weather Roundup
Issued by NWS

Home | Current Version | Previous Version | Text Only | Print | Product List | Glossary On
Versions: 1 2 3 4 5 6 7 8 9 10 11 12 13 14 15 16 17 18 19 20 21 22 23 24 25 26 27 28 29 30 31 32 33 34 35 36 37 38 39 40 41 42 43 44 45 46 47 48 49 50
000
ASUS43 KMKX 291500
RWRWI

WISCONSIN REGIONAL WEATHER ROUNDUP
NATIONAL WEATHER SERVICE MILWAUKEE/SULLIVAN WI
1000 AM CDT SUN MAY 29 2016

NOTE: "FAIR" INDICATES FEW OR NO CLOUDS BELOW 12,000 FEET WITH NO
SIGNIFICANT WEATHER AND/OR OBSTRUCTIONS TO VISIBILITY.

WIZ001-002-006>008-014>016-023>028-291600-
NORTHWEST WISCONSIN

CITY           SKY/WX    TMP DP  RH WIND       PRES   REMARKS
SUPERIOR ARPT  CLOUDY    63  61  94 W9        29.82S
ASHLAND        CLOUDY    62  58  86 SW8G16    29.83R
HAYWARD        LGT RAIN  61  58  90 SW9       29.86S
SIREN          CLOUDY    63  59  87 W8        29.88R
CUMBERLAND     CLOUDY    61  57  88 W13       29.89R
RICE LAKE      CLOUDY    63  58  82 W9        29.90R
CHETEK         CLOUDY    64  60  88 W5        29.89S
LADYSMITH      CLOUDY    63  60  88 W6        29.89R
EAU CLAIRE     CLOUDY    64  61  90 SW7       29.89S
MENOMONIE      RAIN      63  63  99 W10G17    29.91R
NEW RICHMOND   CLOUDY    62  61  96 W9        29.91R
OSCEOLA        CLOUDY    64  64 100 W10       29.93R
$$

WIZ003>005-009-010-017-018-291600-
NORTH CENTRAL WISCONSIN

CITY           SKY/WX    TMP DP  RH WIND       PRES   REMARKS
MANITOWISH WTR NOT AVBL
ARBOR VITAE    CLOUDY    63  61  93 W6        29.85R
WOODRUFF       CLOUDY    63  61  93 W6        29.85R
RHINELANDER    LGT RAIN  64  59  83 W14       29.86S
EAGLE RIVER      N/A     64  60  87 W9        29.84S
LAND O LAKES   CLOUDY    66  59  79 SW6       29.84S
PHILLIPS       CLOUDY    61  59  91 W6        29.86R
TOMAHAWK       CLOUDY    62  59  90 W5        29.87R
MEDFORD        CLOUDY    62  60  93 W10G16    29.88S
MERRILL        CLOUDY    63  62  97 W8        29.87S
$$

WIZ029-030-035-036-043>047-291600-
CENTRAL WISCONSIN

CITY           SKY/WX    TMP DP  RH WIND       PRES   REMARKS
WAUSAU         CLOUDY    67  61  81 W13       29.86S
MOSINEE        CLOUDY    63  63 100 W9        29.89R
MARSHFIELD     CLOUDY    65  59  81 W15       29.89S
STEVENS POINT  LGT RAIN  61  60  97 W8        29.89R
WAUPACA        CLOUDY    69  64  84 SW10      29.89S
WAUTOMA        LGT RAIN  64  62  93 W14       29.91R
WISC RAPIDS    CLOUDY    67  60  78 W9        29.91R
CAMP DOUGLAS   NOT AVBL
$$

WIZ011>013-019>022-031-037>040-048>050-291600-
NORTHEAST WISCONSIN

CITY           SKY/WX    TMP DP  RH WIND       PRES   REMARKS
ANTIGO         LGT RAIN  64  61  88 SW10      29.86S
SHAWANO        CLOUDY    70  61  74 W9        29.86S
OCONTO         PTSUNNY   70  65  83 SW9       29.85S
STURGEON BAY   NOT AVBL
GREEN BAY      CLOUDY    69  62  78 SW12G22   29.87S
MANITOWOC      PTSUNNY   70  63  78 S14       29.90S
APPLETON       LGT RAIN  64  63  94 SW14      29.88R
CLINTONVILLE   CLOUDY    68  59  73 SW14      29.87S
OSHKOSH        CLOUDY    67  60  78 SW8G20    29.89S
$$

WIZ032>034-041-042-053>061-291600-
SOUTHWEST WISCONSIN

CITY           SKY/WX    TMP DP  RH WIND       PRES   REMARKS
LA CROSSE      CLOUDY    70  60  70 W10       29.93S
SPARTA         CLOUDY    67  60  80 W8        29.94R
VIROQUA        CLOUDY    65  59  80 W10G17    29.96S
BOSCOBEL       PTSUNNY   71  61  70 W10       29.97S
PRAIRIE DU CHI PTSUNNY   69  58  67 W8        29.98R
PLATTEVILLE    PTSUNNY   68  62  81 W15       30.00R
$$

WIZ056-057-062-063-064-067-068-291600-
SOUTH CENTRAL WISCONSIN

CITY           SKY/WX    TMP DP  RH WIND       PRES   REMARKS
REEDSBURG      PTSUNNY   67  61  81 W12       29.94R
BARABOO/DELLS  CLOUDY    67  59  73 W14G21    29.93S
LONE ROCK      PTSUNNY   69  60  73 W13       29.96R
MINERAL POINT  PTSUNNY   70  61  73 W17       29.98R
MADISON        PTSUNNY   70  60  70 W12G18    29.95R
MIDDLETON      CLOUDY    68  62  80 W10G17    29.96R
WATERTOWN      PTSUNNY   67  61  80 SW13G20   29.94S
MONROE         CLOUDY    64  59  82 SW17      29.99R
JANESVILLE     CLOUDY    70  61  73 W13G20    29.98R
$$

WIZ051-052-058>065-066-070>072-291600-
SOUTHEAST WISCONSIN

CITY           SKY/WX    TMP DP  RH WIND       PRES   REMARKS
MILWAUKEE      PTSUNNY   72  60  66 SW15      29.95S
WAUKESHA       CLOUDY    66  57  72 SW12      29.97R
MILWAUKEE/TIMM PTSUNNY   72  57  60 SW17      29.95R
RACINE         MOSUNNY   73  59  61 SW15G23   29.97R
BURLINGTON     PTSUNNY   69  60  73 SW14G21   29.97R
KENOSHA        MOSUNNY   73  61  65 SW16G26   29.97R
FOND DU LAC    CLOUDY    68  61  78 SW13G18   29.91S
SHEBOYGAN      PTSUNNY   70  62  76 SW14      29.91S
WEST BEND      CLOUDY    68  59  73 W13G18    29.94R
JUNEAU         CLOUDY    66  60  81 SW13G20   29.94S
$$

LSZ147-162-291600-
LAKE SUPERIOR

STATION/POSITION TIME  TEMP    WIND        PRES    WAVE
                       AIR SEA DIR/SP/G            HT/PER
                 (UTC) (F)     (DEG/KT/KT) (MB)    (FT/S)
W MID LAKE BUOY  1350   41 38  240/ 10/ 10 1009.2R   1
DEVILS ISLAND    1400   51     210/ 11/ 12 1009.2F
PORT WING        1440   61     220/  7/ 12 1009.8
SAXON HARBOR     1440   62     210/  6/  9 1009.5R
$$

LMZ867-665-643>646-291600-
LAKE MICHIGAN

STATION/POSITION TIME  TEMP    WIND        PRES    WAVE
                       AIR SEA DIR/SP/G            HT/PER
                 (UTC) (F)     (DEG/KT/KT) (MB)    (FT/S)
CHAMBERS ISLAND  1440   69     180/ 10/ 14 1010.8F
N MID LAKE BUOY  1350   49 46  190/ 16/ 17 1011.8F   2/ 5
NORTHPORT PIER   1400   56     140/  8/ 10 1011.5F
SISTER BAY       1405   71     160/  9/ 12   N/A
ALGOMA LAKESHORE 1417          220/  9/ 11   N/A
KEWAUNEE LAKESHO 1400   50     170/ 11/ 13 1011.5F
SHEBOYGAN LAKESH 1400   58     190/ 17/ 18 1013.2R
PORT WASHINGTON  1430   67     210/  8/ 14 1013.9S
S MID LAKE BUOY  1350   54 50  170/ 10/ 10 1014.7S   1/ 3
KENOSHA   LAKESH 1400   72     210/ 11/ 17 1014.2S
$$

TC  - TEMPERATURE IN CELSIUS
VSB - VISIBILITY IN STATUTE MILES
WCI - WIND CHILL INDEX
HX  - HEAT INDEX





USA.gov is the U.S. government's official web portal to all federal, state and local government web resources and services.